sat.trackr.live / text

‹ back to catalog

STARLINK-32677

NORAD 63020 · 2025-032R

PAYLOAD ACTIVE UNKNOWN

§ Identity

Operator
Country
US
Launch date
2025-02-15
Launch site
AFETR
Launch vehicle
Mass (kg)
RCS (m²)

Purposes: comms

External: N2YO · Heavens-Above · Gunter

§ Orbital elements

Epoch: 2026-09-21T03:54:33.861888Z

Period
94.27 min
Inclination
42.9944°
Eccentricity
0.0000812
Mean motion
15.27581717 rev/d
Perigee alt
482.5 km
Apogee alt
483.6 km
Semi-major
6,861.2 km
B*
2.4404e-4
RAAN
312.2441°
Arg perigee
145.6208°
Mean anomaly
214.4697°
Rev number
9,050

§ Raw data

STARLINK-326771 63020U 25032R   26264.16289192  .00006460  00000+0  24404-3 0  99932 63020  42.9944 312.2441 0000812 145.6208 214.4697 15.27581717 90500

JSON: /api/v1/satellites/63020 · /tle

For live sub-satellite position, see the globe view (requires WebGL).

§ Visibility from observer

Set your observer location to see the next 7 days of passes ≥ 10°. The values pass through the URL so the page stays shareable.

No JS? Fill the form by hand. The geolocation button needs JavaScript.